NEODyS-2

Near Earth Objects - Dynamic Site
NEODyS ∴ Observatories ∴ Site 691 ∴ Obs & residuals
Contact »
691  ▹ 
OBSERVATIONS AND RESIDUALS

691-Steward Observatory, Kitt Peak-Spacewatch

Detections | Residuals | Detections & Residuals

[1-200] [201-400] [401-600] [601-800] [801-1000] [1001-1200] [1201-1400] [1401-1600] [1601-1800] [1801-2000] [2001-2200] [2201-2400] [2401-2600] [2601-2800] [2801-3000] [3001-3200] [3201-3400] [3401-3600] [3601-3800] [3801-4000] [4001-4200] [4201-4400] [4401-4600] [4601-4800] [4801-5000] [5001-5200] [5201-5400] [5401-5600] [5601-5800] [5801-6000] [6001-6200] [6201-6400] [6401-6600] [6601-6800] [6801-7000] [7001-7200] [7201-7400] [7401-7600] [7601-7800] [7801-8000] [8001-8200] [8201-8400] [8401-8600] [8601-8800] [8801-9000] [9001-9200] [9201-9400] [9401-9600] [9601-9800] [9801-10000] [10001-10200] [10201-10400] [10401-10600] [10601-10800] [10801-11000] [11001-11200] [11201-11400] [11401-11600] [11601-11800] [11801-12000] [12001-12200] [12201-12400] [12401-12600] [12601-12800] [12801-13000] [13001-13200] [13201-13400] [13401-13600] [13601-13800] [13801-14000] [14001-14200] [14201-14400] [14401-14600] [14601-14800] [14801-15000] [15001-15200] [15201-15400] [15401-15600] [15601-15800] [15801-16000] [16001-16200] [16201-16400] [16401-16600] [16601-16800] [16801-17000] [17001-17200] [17201-17400] [17401-17600] [17601-17800] [17801-18000] [18001-18200] [18201-18400] [18401-18600] [18601-18800] [18801-19000] [19001-19200] [19201-19400] [19401-19600] [19601-19800] [19801-20000] [20001-20200] [20201-20400] [20401-20600] [20601-20800] [20801-21000] [21001-21200] [21201-21400] [21401-21600] [21601-21800] [21801-22000] [22001-22200] [22201-22400] [22401-22600] [22601-22800] [22801-23000] [23001-23200] [23201-23400] [23401-23600] [23601-23800] [23801-24000] [24001-24200] [24201-24400] [24401-24600] [24601-24800] [24801-25000] [25001-25200] [25201-25400] [25401-25600] [25601-25800] [25801-26000] [26001-26200] [26201-26400] [26401-26600] [26601-26800] [26801-27000] [27001-27200] [27201-27400] [27401-27600] [27601-27800] [27801-28000] [28001-28200] [28201-28400] [28401-28600] [28601-28800] [28801-29000] [29001-29200] [29201-29400] [29401-29600] [29601-29800] [29801-30000] [30001-30200] [30201-30400] [30401-30600] [30601-30800] [30801-31000] [31001-31200] [31201-31400] [31401-31600] [31601-31800] [31801-32000] [32001-32200] [32201-32400] [32401-32600] [32601-32800] [32801-33000] [33001-33200] [33201-33400] [33401-33600] [33601-33800] [33801-34000] [34001-34200] [34201-34400] [34401-34600] [34601-34800] [34801-35000] [35001-35200] [35201-35400] [35401-35600] [35601-35800] [35801-36000] [36001-36200] [36201-36400] [36401-36600] [36601-36800] [36801-37000] [37001-37200] [37201-37400] [37401-37600] [37601-37800] [37801-38000] [38001-38200] [38201-38400] [38401-38600] [38601-38800] [38801-39000] [39001-39200] [39201-39400] [39401-39600] [39601-39800] [39801-40000] [40001-40200] [40201-40400] [40401-40600] [40601-40800] [40801-41000] [41001-41200] [41201-41400] [41401-41600] [41601-41800] [41801-42000] [42001-42200] [42201-42400] [42401-42600] [42601-42800] [42801-43000] [43001-43200] [43201-43400] [43401-43600] [43601-43800] [43801-44000] [44001-44200] [44201-44400] [44401-44600] [44601-44800] [44801-45000] [45001-45200] [45201-45400] [45401-45600] [45601-45800] [45801-46000] [46001-46200] [46201-46400] [46401-46600] [46601-46800] [46801-47000] [47001-47200] [47201-47400] [47401-47600] [47601-47800] [47801-48000] [48001-48200] [48201-48400] [48401-48600] [48601-48800] [48801-49000] [49001-49200] [49201-49400] [49401-49600] [49601-49800] [49801-50000] [50001-50200] [50201-50388]

Designation T Tech N Date Right Ascension Declination Apparent Magnitude Star Catalog Site code χ Used A Used M
yr-mo-day precision hr:min:sec precision rms F bias residual deg min sec precision rms F bias residual mag/col rms residual
1994GV O C 1994-04-15.32797 1.000E-05 14:46:08.980 1.500E-01 0.600 F -0.705 0.466 -19° 06' 51.20" 1.000E-01 0.600 F 0.470 -0.227 19.9 V 0.70 0.18 i 691 1.21 Yes Yes
1994GV O C 1994-04-15.33282 1.000E-05 14:46:15.900 1.500E-01 0.600 F -0.705 -0.529 -19° 07' 23.50" 1.000E-01 0.600 F 0.470 -0.050 i 691 1.24 Yes No
1991FA O c 1994-05-03.23582 1.000E-05 13:15:03.910 1.500E-01 0.600 F -0.226 -0.615 -12° 16' 03.90" 1.000E-01 0.600 F 0.563 0.373 20.1 V 0.70 -0.09 i 691 1.20 Yes Yes
1991FA O c 1994-05-03.24382 1.000E-05 13:15:03.480 1.500E-01 0.600 F -0.226 0.285 -12° 16' 00.80" 1.000E-01 0.600 F 0.563 0.505 20.1 V 0.70 -0.09 i 691 0.97 Yes Yes
1991FA O c 1994-05-03.25153 1.000E-05 13:15:02.970 1.500E-01 0.600 F -0.226 -0.251 -12° 15' 58.80" 1.000E-01 0.600 F 0.563 -0.357 20.3 V 0.70 0.11 i 691 0.73 Yes Yes
1991FA O c 1994-05-04.20441 1.000E-05 13:14:07.480 1.500E-01 0.600 F -0.226 0.009 -12° 10' 07.60" 1.000E-01 0.600 F 0.563 0.005 19.9 V 0.70 -0.33 i 691 0.02 Yes Yes
1991FA O c 1994-05-04.22895 1.000E-05 13:14:05.970 1.500E-01 0.600 F -0.226 -0.639 -12° 09' 58.70" 1.000E-01 0.600 F 0.563 -0.020 20.2 V 0.70 -0.03 i 691 1.07 Yes Yes
1991FA O c 1994-05-04.25790 1.000E-05 13:14:04.260 1.500E-01 0.600 F -0.226 -0.363 -12° 09' 48.50" 1.000E-01 0.600 F 0.563 -0.378 20.2 V 0.70 -0.03 i 691 0.87 Yes Yes
1993VA O c 1994-06-12.26712 1.000E-05 15:40:44.830 1.500E-01 0.600 F 0.699 -0.447 -03° 35' 35.90" 1.000E-01 0.600 F -0.372 1.082 18.0 V 0.70 -0.46 i 691 1.95 Yes Yes
1993VA O c 1994-06-12.29184 1.000E-05 15:40:42.930 1.500E-01 0.600 F 0.699 0.024 -03° 35' 48.60" 1.000E-01 0.600 F -0.372 0.238 18.2 V 0.70 -0.26 i 691 0.40 Yes Yes
1993VA O c 1994-06-12.31566 1.000E-05 15:40:41.070 1.500E-01 0.600 F 0.699 -0.069 -03° 35' 59.80" 1.000E-01 0.600 F -0.372 0.454 i 691 0.77 Yes No
1994LX O c 1994-06-15.37015 1.000E-05 20:52:28.410 1.500E-01 0.600 F 0.263 -1.303 -09° 19' 20.80" 1.000E-01 0.600 F -0.129 0.438 17.0 V 0.70 -0.15 i 691 2.30 Yes Yes
1994LX O c 1994-06-15.39386 1.000E-05 20:52:27.600 1.500E-01 0.600 F 0.263 -1.036 -09° 19' 54.40" 1.000E-01 0.600 F -0.129 0.747 17.0 V 0.70 -0.15 i 691 2.14 Yes Yes
1994LX O c 1994-06-15.41763 1.000E-05 20:52:26.770 1.500E-01 0.600 F 0.263 -0.941 -09° 20' 28.50" 1.000E-01 0.600 F -0.129 0.640 16.9 V 0.70 -0.25 i 691 1.91 Yes Yes
1994LX O c 1994-06-16.40860 1.000E-05 20:51:53.870 1.500E-01 0.600 F 0.263 0.090 -09° 44' 28.50" 1.000E-01 0.600 F -0.128 -0.037 17.1 V 0.70 -0.01 i 691 0.16 Yes Yes
1994LX O c 1994-06-16.41611 1.000E-05 20:51:53.360 1.500E-01 0.600 F 0.263 -3.151 -09° 44' 40.40" 1.000E-01 0.600 F -0.128 -0.831 16.7 V 0.70 -0.41 i 691 5.42 No Yes
1994LX O c 1994-06-16.43174 1.000E-05 20:51:52.800 1.500E-01 0.600 F 0.263 -2.464 -09° 45' 02.10" 1.000E-01 0.600 F -0.128 0.583 16.6 V 0.70 -0.51 i 691 4.20 No Yes
1994NK O c 1994-07-08.34694 1.000E-05 21:27:36.670 1.500E-01 0.600 F -0.329 0.728 -10° 08' 00.90" 1.000E-01 0.600 F 0.050 0.074 17.9 V 0.70 -0.43 i 691 1.27 Yes Yes
1994NK O c 1994-07-08.39176 1.000E-05 21:27:37.480 1.500E-01 0.600 F -0.329 0.776 -10° 09' 25.30" 1.000E-01 0.600 F 0.050 1.225 18.0 V 0.70 -0.33 i 691 2.47 Yes Yes
1994NK O c 1994-07-08.41767 1.000E-05 21:27:37.930 1.500E-01 0.600 F -0.329 0.782 -10° 10' 16.10" 1.000E-01 0.600 F 0.050 -0.371 17.8 V 0.70 -0.53 i 691 1.49 Yes Yes
1994NK O c 1994-07-09.35047 1.000E-05 21:28:06.710 1.500E-01 0.600 F -0.329 -0.612 -10° 39' 29.50" 1.000E-01 0.600 F 0.050 0.354 18.2 V 0.70 -0.14 i 691 1.21 Yes Yes
1994NK O c 1994-07-09.37770 1.000E-05 21:28:07.080 1.500E-01 0.600 F -0.329 -0.606 -10° 40' 20.70" 1.000E-01 0.600 F 0.050 0.200 18.3 V 0.70 -0.04 i 691 1.10 Yes Yes
2005LS3 O C 1994-07-10.17532 1.000E-05 13:53:32.430 1.500E-01 0.600 F 0.506 0.024 -12° 58' 29.20" 1.000E-01 0.600 F -0.295 0.374 20.7 V 0.70 0.49 a 691 0.66 Yes Yes
2005LS3 O C 1994-07-10.18326 1.000E-05 13:53:33.130 1.500E-01 0.600 F 0.506 0.440 -12° 59' 08.50" 1.000E-01 0.600 F -0.295 0.828 20.4 V 0.70 0.19 a 691 1.61 Yes Yes
2005LS3 O C 1994-07-10.19136 1.000E-05 13:53:33.840 1.500E-01 0.600 F 0.506 0.779 -12° 59' 49.40" 1.000E-01 0.600 F -0.295 0.466 20.5 V 0.70 0.29 a 691 1.52 Yes Yes
1994NK O c 1994-07-10.43328 1.000E-05 21:28:33.030 1.500E-01 0.600 F -0.501 1.198 -11° 12' 48.10" 1.000E-01 0.600 F -0.198 0.140 18.7 V 0.70 0.34 i 691 2.09 Yes Yes
1994NK O c 1994-07-10.44904 1.000E-05 21:28:33.060 1.500E-01 0.600 F -0.501 -0.413 -11° 13' 17.00" 1.000E-01 0.600 F -0.198 -0.141 18.2 V 0.70 -0.16 i 691 0.75 Yes Yes
1994NK O c 1994-07-11.39047 1.000E-05 21:28:53.490 1.500E-01 0.600 F -0.501 -0.443 -11° 41' 39.20" 1.000E-01 0.600 F -0.198 0.091 18.4 V 0.70 0.03 i 691 0.78 Yes Yes
1994NK O c 1994-07-11.39861 1.000E-05 21:28:53.560 1.500E-01 0.600 F -0.501 0.033 -11° 41' 53.80" 1.000E-01 0.600 F -0.198 0.085 18.1 V 0.70 -0.27 i 691 0.15 Yes Yes
1994NK O c 1994-07-11.40681 1.000E-05 21:28:53.570 1.500E-01 0.600 F -0.501 -0.370 -11° 42' 09.00" 1.000E-01 0.600 F -0.198 -0.433 18.2 V 0.70 -0.18 i 691 0.97 Yes Yes
1994RB O c 1994-09-01.40801 1.000E-05 23:56:19.720 1.500E-01 0.900 F -0.638 -0.231 +01° 13' 57.80" 1.000E-01 0.900 F 0.054 0.416 18.1 V 0.70 0.07 i 691 0.56 Yes Yes
1994RB O c 1994-09-01.41212 1.000E-05 23:56:18.680 1.500E-01 0.900 F -0.638 1.249 +01° 16' 33.50" 1.000E-01 0.900 F 0.054 -0.068 17.9 V 0.70 -0.13 i 691 1.46 Yes Yes
1994RB O c 1994-09-01.41651 1.000E-05 23:56:17.340 1.500E-01 0.900 F -0.638 -0.620 +01° 19' 19.60" 1.000E-01 0.900 F 0.054 -0.964 18.0 V 0.70 -0.03 i 691 1.35 Yes Yes
1994RB O c 1994-09-01.43697 1.000E-05 23:56:11.710 1.500E-01 0.900 F -0.638 -0.364 +01° 32' 20.70" 1.000E-01 0.900 F 0.054 -0.492 18.1 V 0.70 0.08 i 691 0.72 Yes Yes
1994RB O c 1994-09-01.44410 1.000E-05 23:56:09.780 1.500E-01 0.900 F -0.371 -0.199 +01° 36' 54.20" 1.000E-01 0.900 F 0.074 0.051 18.0 V 0.70 -0.02 i 691 0.24 Yes Yes
1994RB O c 1994-09-01.45179 1.000E-05 23:56:07.690 1.500E-01 0.900 F -0.371 0.038 +01° 41' 49.40" 1.000E-01 0.900 F 0.074 0.357 17.9 V 0.70 -0.12 i 691 0.42 Yes Yes
1994RB O c 1994-09-01.46169 1.000E-05 23:56:05.000 1.500E-01 0.900 F -0.371 0.175 +01° 48' 09.50" 1.000E-01 0.900 F 0.074 0.021 18.3 V 0.70 0.28 i 691 0.21 Yes Yes
1994RB O c 1994-09-01.46888 1.000E-05 23:56:03.030 1.500E-01 0.900 F -0.371 -0.113 +01° 52' 45.20" 1.000E-01 0.900 F 0.074 -1.134 18.1 V 0.70 0.08 i 691 1.34 Yes Yes
1994RB O c 1994-09-01.47504 1.000E-05 23:56:01.410 1.500E-01 0.900 F -0.371 0.552 +01° 56' 46.30" 1.000E-01 0.900 F 0.074 2.397 17.9 V 0.70 -0.11 i 691 2.88 Yes Yes
1994RB O c 1994-09-02.20257 1.000E-05 23:53:17.420 1.500E-01 0.949 F -0.409 -0.546 +10° 26' 49.00" 1.000E-01 0.949 F 0.932 0.090 18.3 V 0.70 0.35 i 691 0.67 Yes Yes
1994RB O c 1994-09-02.20673 1.000E-05 23:53:16.250 1.500E-01 0.949 F -0.409 1.295 +10° 29' 57.20" 1.000E-01 0.949 F 0.932 -1.658 18.0 V 0.70 0.05 i 691 2.41 Yes Yes
1994RB O c 1994-09-02.21075 1.000E-05 23:53:14.870 1.500E-01 0.949 F -0.409 -0.497 +10° 33' 03.20" 1.000E-01 0.949 F 0.932 0.642 17.8 V 0.70 -0.15 i 691 0.93 Yes Yes
1994RB O c 1994-09-02.30459 1.000E-05 23:52:43.790 1.500E-01 0.949 F -0.151 0.173 +11° 45' 07.60" 1.000E-01 0.949 F 0.383 -1.691 17.9 V 0.70 -0.05 i 691 1.88 Yes Yes
1994RB O c 1994-09-02.31047 1.000E-05 23:52:41.710 1.500E-01 0.949 F -0.151 -0.368 +11° 49' 41.60" 1.000E-01 0.949 F 0.383 -1.232 17.8 V 0.70 -0.15 i 691 1.43 Yes Yes
1994RB O c 1994-09-02.31552 1.000E-05 23:52:39.960 1.500E-01 0.949 F -0.151 -0.205 +11° 53' 38.30" 1.000E-01 0.949 F 0.383 0.322 18.0 V 0.70 0.05 i 691 0.42 Yes Yes
1994RB O c 1994-09-02.45812 1.000E-05 23:51:49.230 1.500E-01 0.949 F -0.042 -0.556 +13° 45' 36.50" 1.000E-01 0.949 F 0.164 0.384 17.7 V 0.70 -0.25 i 691 0.75 Yes Yes
1994RB O c 1994-09-02.46617 1.000E-05 23:51:46.430 1.500E-01 0.949 F -0.417 0.327 +13° 51' 59.70" 1.000E-01 0.949 F 0.329 -0.190 17.8 V 0.70 -0.15 i 691 0.42 Yes Yes
1994RB O c 1994-09-02.47249 1.000E-05 23:51:44.190 1.500E-01 0.949 F -0.378 -0.039 +13° 57' 01.70" 1.000E-01 0.949 F 0.017 0.634 17.9 V 0.70 -0.05 i 691 0.71 Yes Yes
1994RB O c 1994-09-02.47827 1.000E-05 23:51:42.140 1.500E-01 0.949 F -0.378 -0.458 +14° 01' 39.20" 1.000E-01 0.949 F 0.017 2.162 i 691 2.48 Yes No
Seleucus O c 1994-09-27.12658 1.000E-05 23:12:31.560 1.500E-01 0.600 F -0.061 -1.197 +02° 02' 37.50" 1.000E-01 0.600 F 0.242 -0.850 19.0 V 0.70 0.14 i 691 2.45 Yes Yes
Seleucus O c 1994-09-27.14959 1.000E-05 23:12:30.230 1.500E-01 0.600 F -0.061 -0.656 +02° 02' 25.60" 1.000E-01 0.600 F 0.242 -0.489 19.2 V 0.70 0.34 i 691 1.36 Yes Yes
1992TB O c 1994-09-28.43243 1.000E-05 05:14:37.820 1.500E-01 0.600 F -0.605 -0.736 -03° 52' 58.80" 1.000E-01 0.600 F -0.050 0.224 19.7 V 0.70 -0.29 i 691 1.29 Yes Yes
1992TC O c 1994-09-28.43282 1.000E-05 05:15:11.380 1.500E-01 0.600 F -0.605 0.628 -03° 53' 26.80" 1.000E-01 0.600 F -0.050 0.435 17.3 V 0.70 -0.38 i 691 1.28 Yes Yes
1992TC O c 1994-09-28.44539 1.000E-05 05:15:12.910 1.500E-01 0.600 F -0.605 -0.562 -03° 53' 18.70" 1.000E-01 0.600 F -0.050 0.597 17.5 V 0.70 -0.18 i 691 1.38 Yes Yes
1992TB O c 1994-09-28.45639 1.000E-05 05:14:39.500 1.500E-01 0.600 F -0.605 -0.712 -03° 53' 36.00" 1.000E-01 0.600 F -0.050 -0.362 19.4 V 0.70 -0.59 i 691 1.34 Yes Yes
1992TC O c 1994-09-28.45679 1.000E-05 05:15:14.470 1.500E-01 0.600 F -0.605 1.002 -03° 53' 11.70" 1.000E-01 0.600 F -0.050 0.388 17.6 V 0.70 -0.08 i 691 1.80 Yes Yes
1992TB O c 1994-09-29.42126 1.000E-05 05:15:49.020 1.500E-01 0.600 F -0.605 -1.431 -04° 18' 22.70" 1.000E-01 0.600 F -0.050 0.716 i 691 2.67 Yes No
1992TB O c 1994-09-29.42913 1.000E-05 05:15:49.640 1.500E-01 0.600 F -0.605 -0.286 -04° 18' 35.30" 1.000E-01 0.600 F -0.050 0.379 i 691 0.79 Yes No
1992TB O c 1994-09-29.44739 1.000E-05 05:15:50.870 1.500E-01 0.600 F -0.605 -0.716 -04° 19' 03.60" 1.000E-01 0.600 F -0.050 0.536 i 691 1.49 Yes No
1992TC O c 1994-09-29.46379 1.000E-05 05:17:31.260 1.500E-01 0.600 F -0.497 0.153 -03° 42' 28.70" 1.000E-01 0.600 F -0.245 0.432 i 691 0.76 Yes No
1992TC O c 1994-09-29.47156 1.000E-05 05:17:32.220 1.500E-01 0.600 F -0.497 0.154 -03° 42' 23.40" 1.000E-01 0.600 F -0.245 0.769 i 691 1.31 Yes No
1992TC O c 1994-09-29.47894 1.000E-05 05:17:33.100 1.500E-01 0.600 F -0.497 -0.305 -03° 42' 19.10" 1.000E-01 0.600 F -0.245 0.352 i 691 0.78 Yes No
2001TC2 O C t 1994-10-05.42218 1.000E-05 01:51:25.700 1.500E-01 0.600 F 0.021 0.162 +06° 04' 49.50" 1.000E-01 0.600 F -0.166 0.182 17.5 V 0.70 -0.33 a 691 0.41 Yes Yes
2001TC2 O C t 1994-10-05.44446 1.000E-05 01:51:23.220 1.500E-01 0.600 F 0.021 0.110 +06° 03' 01.30" 1.000E-01 0.600 F -0.166 0.104 17.6 V 0.70 -0.23 a 691 0.26 Yes Yes
2001TC2 O C t 1994-10-05.46659 1.000E-05 01:51:20.770 1.500E-01 0.600 F 0.021 0.045 +06° 01' 14.00" 1.000E-01 0.600 F -0.166 0.265 17.7 V 0.70 -0.13 a 691 0.45 Yes Yes
1994TA2 O c 1994-10-09.19930 1.000E-05 00:25:48.210 1.500E-01 0.600 F -0.087 -0.823 +06° 06' 01.20" 1.000E-01 0.600 F -0.047 -0.066 19.5 V 0.70 -0.36 i 691 1.53 Yes Yes
1994TA2 O c 1994-10-09.22340 1.000E-05 00:25:48.480 1.500E-01 0.600 F -0.087 -0.218 +06° 05' 37.50" 1.000E-01 0.600 F -0.047 -0.025 20.2 V 0.70 0.34 i 691 0.40 Yes Yes
1994TA2 O c 1994-10-09.24790 1.000E-05 00:25:48.740 1.500E-01 0.600 F -0.087 0.308 +06° 05' 13.20" 1.000E-01 0.600 F -0.047 -0.168 20.1 V 0.70 0.24 i 691 0.65 Yes Yes
1994TA2 O c 1994-10-10.18367 1.000E-05 00:26:04.160 1.500E-01 0.849 F -0.087 0.572 +05° 50' 03.00" 1.000E-01 0.849 F -0.047 2.932 i 691 3.44 No No
1994TA2 O c 1994-10-10.19327 1.000E-05 00:26:04.210 1.500E-01 0.849 F -0.087 -0.183 +05° 49' 50.90" 1.000E-01 0.849 F -0.047 0.022 20.2 V 0.70 0.27 i 691 0.22 Yes Yes
1994TA2 O c 1994-10-10.20156 1.000E-05 00:26:04.290 1.500E-01 0.849 F -0.087 -0.262 +05° 49' 44.00" 1.000E-01 0.849 F -0.047 1.060 20.6 V 0.70 0.67 i 691 1.32 Yes Yes
1994TA2 O c 1994-10-10.20937 1.000E-05 00:26:04.410 1.500E-01 0.849 F -0.087 0.347 +05° 49' 35.40" 1.000E-01 0.849 F -0.047 -0.060 19.9 V 0.70 -0.03 i 691 0.43 Yes Yes
1994TA2 O c 1994-10-10.21581 1.000E-05 00:26:04.460 1.500E-01 0.849 F -0.087 0.131 +05° 49' 29.30" 1.000E-01 0.849 F -0.047 0.009 i 691 0.16 Yes No
1994TA2 O c 1994-10-10.39899 1.000E-05 00:26:06.280 1.500E-01 0.849 F -0.087 -0.158 +05° 46' 33.30" 1.000E-01 0.849 F -0.047 0.082 19.7 V 0.70 -0.24 i 691 0.21 Yes Yes
1994TA2 O c 1994-10-10.40662 1.000E-05 00:26:06.390 1.500E-01 0.849 F -0.087 0.156 +05° 46' 25.70" 1.000E-01 0.849 F -0.047 -0.163 19.6 V 0.70 -0.34 i 691 0.27 Yes Yes
1994TA2 O c 1994-10-10.41429 1.000E-05 00:26:06.450 1.500E-01 0.849 F -0.087 -0.311 +05° 46' 18.70" 1.000E-01 0.849 F -0.047 0.231 19.8 V 0.70 -0.14 i 691 0.47 Yes Yes
1994TA2 O c 1994-10-11.29638 1.000E-05 00:26:21.860 1.500E-01 0.671 F -0.280 0.810 +05° 32' 26.20" 1.000E-01 0.671 F 0.000 -0.239 i 691 1.29 Yes No
1994TA2 O c 1994-10-11.30347 1.000E-05 00:26:21.880 1.500E-01 0.671 F -0.280 0.021 +05° 32' 20.10" 1.000E-01 0.671 F 0.000 0.275 20.5 V 0.70 0.50 i 691 0.42 Yes Yes
1994TA2 O c 1994-10-11.31119 1.000E-05 00:26:21.970 1.500E-01 0.671 F -0.280 0.172 +05° 32' 12.50" 1.000E-01 0.671 F 0.000 -0.121 20.1 V 0.70 0.10 i 691 0.32 Yes Yes
1994TA2 O c 1994-10-11.31887 1.000E-05 00:26:22.030 1.500E-01 0.671 F -0.280 -0.127 +05° 32' 05.30" 1.000E-01 0.671 F 0.000 -0.152 19.8 V 0.70 -0.20 i 691 0.30 Yes Yes
1994TA2 O c 1994-10-11.32502 1.000E-05 00:26:22.180 1.500E-01 0.671 F -0.280 1.147 +05° 31' 59.80" 1.000E-01 0.671 F 0.000 0.089 i 691 1.75 Yes No
1990TG1 O C 1994-10-11.33463 1.000E-05 02:08:58.500 1.500E-01 0.600 F 0.058 0.681 +12° 05' 29.50" 1.000E-01 0.600 F -0.134 0.880 20.2 V 0.70 0.77 a 691 1.85 Yes Yes
1994TE2 O c 1994-10-11.33790 1.000E-05 02:14:40.890 1.500E-01 0.735 F 0.150 -0.297 +12° 08' 18.80" 1.000E-01 0.735 F -0.001 0.131 20.5 V 0.70 -0.62 i 691 0.50 Yes Yes
1990TG1 O C 1994-10-11.34255 1.000E-05 02:08:57.980 1.500E-01 0.600 F 0.058 0.492 +12° 05' 26.40" 1.000E-01 0.600 F -0.134 1.122 19.2 V 0.70 -0.23 a 691 2.04 Yes Yes
1994TE2 O c 1994-10-11.34582 1.000E-05 02:14:41.600 1.500E-01 0.735 F 0.150 -0.002 +12° 08' 10.70" 1.000E-01 0.735 F -0.001 -0.102 21.0 V 0.70 -0.12 i 691 0.15 Yes Yes
1990TG1 O C 1994-10-11.35041 1.000E-05 02:08:57.490 1.500E-01 0.600 F 0.058 0.687 +12° 05' 22.60" 1.000E-01 0.600 F -0.134 0.642 19.3 V 0.70 -0.13 a 691 1.57 Yes Yes
1994TE2 O c 1994-10-11.35370 1.000E-05 02:14:42.280 1.500E-01 0.735 F 0.150 -0.094 +12° 08' 03.30" 1.000E-01 0.735 F -0.001 0.341 20.6 V 0.70 -0.52 i 691 0.53 Yes Yes
1986DA O c 1994-10-11.42641 1.000E-05 04:30:29.400 1.500E-01 0.600 F -0.008 1.092 +20° 53' 41.90" 1.000E-01 0.600 F -0.106 -0.168 i 691 1.84 Yes No
1994TE2 O c 1994-10-11.43551 1.000E-05 02:14:49.480 1.500E-01 0.735 F 0.150 0.372 +12° 06' 40.50" 1.000E-01 0.735 F -0.001 -0.144 20.4 V 0.70 -0.71 i 691 0.60 Yes Yes
1994TE2 O c 1994-10-11.44337 1.000E-05 02:14:50.170 1.500E-01 0.735 F 0.150 0.253 +12° 06' 32.60" 1.000E-01 0.735 F -0.001 -0.055 20.6 V 0.70 -0.51 i 691 0.39 Yes Yes
1994TE2 O c 1994-10-11.45121 1.000E-05 02:14:50.840 1.500E-01 0.735 F 0.150 -0.170 +12° 06' 24.50" 1.000E-01 0.735 F -0.001 -0.174 20.6 V 0.70 -0.51 i 691 0.36 Yes Yes
1986DA O C 1994-10-11.49723 1.000E-05 04:30:28.080 1.500E-01 0.600 F -0.008 0.254 +20° 53' 41.60" 1.000E-01 0.600 F -0.106 0.149 i 691 0.49 Yes No
1986DA O C 1994-10-11.50280 1.000E-05 04:30:27.980 1.500E-01 0.600 F -0.008 0.241 +20° 53' 41.80" 1.000E-01 0.600 F -0.106 0.407 i 691 0.79 Yes No
1994TA2 O c 1994-10-12.25703 1.000E-05 00:26:38.560 1.500E-01 0.600 F -0.280 0.244 +05° 17' 43.90" 1.000E-01 0.600 F 0.000 -0.948 20.0 V 0.70 -0.06 i 691 1.69 Yes Yes
1994TA2 O c 1994-10-12.26468 1.000E-05 00:26:38.630 1.500E-01 0.600 F -0.280 0.049 +05° 17' 38.10" 1.000E-01 0.600 F 0.000 0.161 i 691 0.29 Yes No
1994TA2 O c 1994-10-12.27238 1.000E-05 00:26:38.720 1.500E-01 0.600 F -0.280 0.144 +05° 17' 31.50" 1.000E-01 0.600 F 0.000 0.518 i 691 0.92 Yes No
1994TE2 O c 1994-10-12.28462 1.000E-05 02:16:14.500 1.500E-01 0.735 F -0.053 0.199 +11° 52' 29.40" 1.000E-01 0.735 F 0.158 -0.127 21.4 V 0.70 0.31 i 691 0.38 Yes Yes
1994TE2 O c 1994-10-12.29406 1.000E-05 02:16:15.300 1.500E-01 0.735 F -0.053 0.015 +11° 52' 20.00" 1.000E-01 0.735 F 0.158 -0.120 21.2 V 0.70 0.11 i 691 0.17 Yes Yes
1994TE2 O c 1994-10-12.30363 1.000E-05 02:16:16.120 1.500E-01 0.735 F -0.053 -0.004 +11° 52' 10.70" 1.000E-01 0.735 F 0.158 0.138 21.5 V 0.70 0.41 i 691 0.20 Yes Yes
1994TE2 O c 1994-10-12.45677 1.000E-05 02:16:29.240 1.500E-01 0.735 F -0.053 -0.342 +11° 49' 35.00" 1.000E-01 0.735 F 0.158 0.313 22.4 V 0.70 1.31 i 691 0.71 Yes Yes
1994TE2 O c 1994-10-12.46452 1.000E-05 02:16:29.950 1.500E-01 0.735 F -0.053 0.080 +11° 49' 26.50" 1.000E-01 0.735 F 0.158 -0.162 21.7 V 0.70 0.61 i 691 0.27 Yes Yes
1994TE2 O c 1994-10-12.47234 1.000E-05 02:16:30.630 1.500E-01 0.735 F -0.053 -0.072 +11° 49' 18.50" 1.000E-01 0.735 F 0.158 -0.054 21.2 V 0.70 0.11 i 691 0.13 Yes Yes
1994TA2 O c 1994-10-13.31584 1.000E-05 00:26:56.960 1.500E-01 0.600 F -0.280 -0.513 +05° 02' 03.70" 1.000E-01 0.600 F 0.000 -0.275 i 691 1.02 Yes No
1994TA2 O c 1994-10-13.32394 1.000E-05 00:26:57.070 1.500E-01 0.600 F -0.280 -0.320 +05° 01' 56.60" 1.000E-01 0.600 F 0.000 -0.282 i 691 0.75 Yes No
1994TA2 O c 1994-10-13.33137 1.000E-05 00:26:57.170 1.500E-01 0.600 F -0.280 -0.169 +05° 01' 50.70" 1.000E-01 0.600 F 0.000 0.326 19.6 V 0.70 -0.53 i 691 0.64 Yes Yes
1994TE2 O C 1994-10-13.36663 1.000E-05 02:17:57.670 1.500E-01 0.600 F -0.053 -0.224 +11° 34' 09.70" 1.000E-01 0.600 F 0.158 -0.186 21.2 V 0.70 0.13 i 691 0.57 Yes Yes
1994TE2 O C 1994-10-13.37241 1.000E-05 02:17:58.160 1.500E-01 0.600 F -0.053 -0.102 +11° 34' 04.10" 1.000E-01 0.600 F 0.158 0.161 i 691 0.39 Yes No
1994TE2 O C 1994-10-13.37850 1.000E-05 02:17:58.700 1.500E-01 0.600 F -0.053 0.369 +11° 33' 57.70" 1.000E-01 0.600 F 0.158 0.035 i 691 0.74 Yes No
1994TA2 O c 1994-10-14.39131 1.000E-05 00:27:16.470 1.500E-01 0.600 F -0.305 -0.284 +04° 46' 41.80" 1.000E-01 0.600 F -0.093 0.320 i 691 0.77 Yes No
1994TA2 O c 1994-10-14.39865 1.000E-05 00:27:16.610 1.500E-01 0.600 F -0.305 0.218 +04° 46' 35.40" 1.000E-01 0.600 F -0.093 0.139 20.2 V 0.70 0.00 i 691 0.47 Yes Yes
1994TA2 O c 1994-10-14.40644 1.000E-05 00:27:16.700 1.500E-01 0.600 F -0.305 -0.153 +04° 46' 28.50" 1.000E-01 0.600 F -0.093 -0.162 i 691 0.40 Yes No
1994TA2 O C 1994-10-27.24459 1.000E-05 00:32:29.410 1.500E-01 0.600 F -0.317 0.182 +02° 27' 08.70" 1.000E-01 0.600 F -0.283 -0.411 i 691 0.92 Yes No
1994TA2 O C 1994-10-27.26491 1.000E-05 00:32:29.910 1.500E-01 0.600 F -0.317 0.039 +02° 26' 59.40" 1.000E-01 0.600 F -0.283 -0.265 20.8 V 0.70 -0.20 i 691 0.55 Yes Yes
1994TA2 O C 1994-10-27.28413 1.000E-05 00:32:30.380 1.500E-01 0.600 F -0.317 -0.183 +02° 26' 51.40" 1.000E-01 0.600 F -0.283 0.668 i 691 1.41 Yes No
1994UG O c 1994-10-28.39713 1.000E-05 01:50:45.850 1.500E-01 0.600 F -0.387 0.008 +16° 41' 36.90" 1.000E-01 0.600 F 0.202 -0.157 20.7 V 0.70 -0.42 i 691 0.26 Yes Yes
1994UG O c 1994-10-28.41962 1.000E-05 01:50:42.650 1.500E-01 0.600 F -0.387 0.382 +16° 41' 26.30" 1.000E-01 0.600 F 0.202 -0.910 21.3 V 0.70 0.18 i 691 1.65 Yes Yes
1994UG O c 1994-10-28.44201 1.000E-05 01:50:39.370 1.500E-01 0.600 F -0.387 -0.818 +16° 41' 15.30" 1.000E-01 0.600 F 0.202 -2.051 20.8 V 0.70 -0.32 i 691 3.64 No Yes
1994US O c 1994-10-29.31874 1.000E-05 01:42:54.370 1.500E-01 0.600 F 0.133 0.024 +16° 28' 44.40" 1.000E-01 0.600 F -0.277 0.114 19.8 V 0.70 -0.10 i 691 0.22 Yes Yes
1994UG O c 1994-10-29.32221 1.000E-05 01:48:38.360 1.500E-01 0.735 F -0.387 -0.215 +16° 35' 05.50" 1.000E-01 0.735 F 0.202 -0.631 21.0 V 0.70 -0.17 i 691 0.91 Yes Yes
1994US O c 1994-10-29.32703 1.000E-05 01:42:54.770 1.500E-01 0.600 F 0.133 -0.062 +16° 28' 31.40" 1.000E-01 0.600 F -0.277 -0.028 19.8 V 0.70 -0.10 i 691 0.13 Yes Yes
1994UG O c 1994-10-29.33048 1.000E-05 01:48:37.190 1.500E-01 0.735 F -0.387 -0.046 +16° 35' 02.30" 1.000E-01 0.735 F 0.202 -0.250 21.1 V 0.70 -0.07 i 691 0.35 Yes Yes
1994US O c 1994-10-29.33609 1.000E-05 01:42:55.200 1.500E-01 0.600 F 0.133 -0.279 +16° 28' 17.30" 1.000E-01 0.600 F -0.277 -0.062 19.7 V 0.70 -0.20 i 691 0.54 Yes Yes
1994UG O c 1994-10-29.33951 1.000E-05 01:48:35.810 1.500E-01 0.735 F -0.387 -1.351 +16° 34' 58.50" 1.000E-01 0.735 F 0.202 -0.129 20.1 V 0.70 -1.07 i 691 1.87 Yes Yes
1994UG O c 1994-10-29.35931 1.000E-05 01:48:33.080 1.500E-01 0.735 F -0.310 -0.103 +16° 34' 49.70" 1.000E-01 0.735 F -0.124 0.039 21.1 V 0.70 -0.07 i 691 0.15 Yes Yes
1994UG O c 1994-10-29.36764 1.000E-05 01:48:31.880 1.500E-01 0.735 F -0.310 -0.318 +16° 34' 46.00" 1.000E-01 0.735 F -0.124 -0.009 21.3 V 0.70 0.13 i 691 0.44 Yes Yes
1994UG O c 1994-10-29.37563 1.000E-05 01:48:30.760 1.500E-01 0.735 F -0.310 -0.098 +16° 34' 42.50" 1.000E-01 0.735 F -0.124 0.002 21.2 V 0.70 0.03 i 691 0.13 Yes Yes
1994UG O C 1994-10-31.26740 1.000E-05 01:44:16.420 1.500E-01 0.600 F -0.310 0.747 +16° 21' 07.30" 1.000E-01 0.600 F -0.124 -1.083 i 691 2.20 Yes No
1994UG O C 1994-10-31.27229 1.000E-05 01:44:15.930 1.500E-01 0.600 F -0.310 3.424 +16° 21' 05.30" 1.000E-01 0.600 F -0.124 -0.963 i 691 5.85 No No
1994UG O C 1994-10-31.27726 1.000E-05 01:44:15.260 1.500E-01 0.600 F -0.310 3.667 +16° 21' 03.60" 1.000E-01 0.600 F -0.124 -0.504 i 691 6.08 No No
1994US O C 1994-10-31.28133 1.000E-05 01:44:45.810 1.500E-01 0.600 F -0.300 0.099 +15° 39' 49.20" 1.000E-01 0.600 F 0.134 -0.170 i 691 0.35 Yes No
1994US O C 1994-10-31.28448 1.000E-05 01:44:45.970 1.500E-01 0.600 F -0.300 0.289 +15° 39' 44.40" 1.000E-01 0.600 F 0.134 -0.394 i 691 0.86 Yes No
1994US O C 1994-10-31.28760 1.000E-05 01:44:46.120 1.500E-01 0.600 F -0.300 0.355 +15° 39' 40.20" 1.000E-01 0.600 F 0.134 -0.061 i 691 0.63 Yes No
1994VH8 O c 1994-11-01.22076 1.000E-05 02:07:26.470 1.500E-01 0.794 F -0.180 0.508 +13° 18' 05.20" 1.000E-01 0.794 F -0.070 -0.116 19.1 V 0.70 i 691 0.00 Yes Yes
1994VH8 O c 1994-11-01.22878 1.000E-05 02:07:42.840 1.500E-01 0.794 F -0.180 0.318 +13° 22' 15.60" 1.000E-01 0.794 F -0.070 -0.109 18.8 V 0.70 i 691 0.00 Yes Yes
1994VH8 O c 1994-11-01.23714 1.000E-05 02:07:59.690 1.500E-01 0.794 F -0.180 -1.088 +13° 26' 33.30" 1.000E-01 0.794 F -0.070 -1.421 18.6 V 0.70 i 691 0.00 Yes Yes
1994VH8 O c 1994-11-01.29380 1.000E-05 02:09:51.690 1.500E-01 0.794 F -0.165 2.196 +13° 55' 00.00" 1.000E-01 0.794 F -0.132 2.984 18.5 V 0.70 i 691 0.00 Yes Yes
1994VH8 O c 1994-11-01.33528 1.000E-05 02:11:10.630 1.500E-01 0.794 F -0.217 -0.634 +14° 14' 46.60" 1.000E-01 0.794 F -0.255 0.746 18.1 V 0.70 i 691 0.00 Yes Yes
1994VH8 O c 1994-11-01.36699 1.000E-05 02:12:09.870 1.500E-01 0.794 F -0.217 -3.498 +14° 29' 20.90" 1.000E-01 0.794 F -0.255 -2.448 18.5 V 0.70 i 691 0.00 Yes Yes
1994UG O c 1994-11-01.39734 1.000E-05 01:41:47.890 1.500E-01 0.600 F 0.133 -0.297 +16° 12' 55.50" 1.000E-01 0.600 F -0.277 0.440 21.1 V 0.70 -0.24 i 691 0.89 Yes Yes
1994UG O c 1994-11-01.40523 1.000E-05 01:41:46.850 1.500E-01 0.600 F 0.133 -0.154 +16° 12' 51.80" 1.000E-01 0.600 F -0.277 0.320 20.9 V 0.70 -0.44 i 691 0.59 Yes Yes
1994UG O c 1994-11-01.41312 1.000E-05 01:41:45.800 1.500E-01 0.600 F 0.133 -0.182 +16° 12' 47.70" 1.000E-01 0.600 F -0.277 -0.193 21.1 V 0.70 -0.24 i 691 0.45 Yes Yes
1994VH8 O c 1994-11-01.42247 1.000E-05 02:13:52.890 1.500E-01 0.794 F -0.354 2.198 +14° 53' 56.50" 1.000E-01 0.794 F -0.656 0.363 18.8 V 0.70 i 691 0.00 Yes Yes
1994US O c 1994-11-01.42954 1.000E-05 01:45:47.740 1.500E-01 0.600 F -0.420 -0.333 +15° 12' 32.20" 1.000E-01 0.600 F 0.201 0.155 19.9 V 0.70 -0.20 i 691 0.65 Yes Yes
1994US O c 1994-11-01.43747 1.000E-05 01:45:48.170 1.500E-01 0.600 F -0.420 0.171 +15° 12' 20.80" 1.000E-01 0.600 F 0.201 0.056 20.2 V 0.70 0.10 i 691 0.32 Yes Yes
1994US O c 1994-11-01.44537 1.000E-05 01:45:48.540 1.500E-01 0.600 F -0.420 -0.213 +15° 12' 10.10" 1.000E-01 0.600 F 0.201 0.619 20.7 V 0.70 0.60 i 691 1.16 Yes Yes
1994VA1 O c 1994-11-05.18128 1.000E-05 01:45:45.740 1.500E-01 0.600 F -0.301 -0.086 +15° 36' 27.60" 1.000E-01 0.600 F 0.134 -0.093 20.6 V 0.70 0.17 i 691 0.21 Yes Yes
1994VA1 O c 1994-11-05.20337 1.000E-05 01:45:43.920 1.500E-01 0.600 F -0.301 -0.414 +15° 36' 08.40" 1.000E-01 0.600 F 0.134 0.176 20.6 V 0.70 0.17 i 691 0.76 Yes Yes
1994VA1 O c 1994-11-05.22544 1.000E-05 01:45:42.140 1.500E-01 0.600 F -0.301 -0.134 +15° 35' 48.80" 1.000E-01 0.600 F 0.134 0.072 20.5 V 0.70 0.07 i 691 0.26 Yes Yes
1994UG O C 1994-11-05.26808 1.000E-05 01:33:52.070 1.500E-01 0.600 F 0.086 0.260 +15° 44' 50.40" 1.000E-01 0.600 F 0.055 -0.375 22.3 V 0.70 0.75 a 691 0.76 Yes Yes
1994UG O C 1994-11-05.27414 1.000E-05 01:33:51.340 1.500E-01 0.600 F 0.086 0.410 +15° 44' 48.10" 1.000E-01 0.600 F 0.055 -0.046 21.8 V 0.70 0.24 a 691 0.70 Yes Yes
1994UG O C 1994-11-05.28027 1.000E-05 01:33:50.600 1.500E-01 0.600 F 0.086 0.535 +15° 44' 45.40" 1.000E-01 0.600 F 0.055 -0.081 21.8 V 0.70 0.24 a 691 0.91 Yes Yes
1994US O C 1994-11-05.28483 1.000E-05 01:49:12.530 1.500E-01 0.600 F -0.555 -0.518 +13° 48' 34.20" 1.000E-01 0.600 F 0.053 0.096 i 691 0.97 Yes No
1994US O C 1994-11-05.28801 1.000E-05 01:49:12.710 1.500E-01 0.600 F -0.555 0.082 +13° 48' 29.90" 1.000E-01 0.600 F 0.053 -0.320 i 691 0.60 Yes No
1994US O C 1994-11-05.29119 1.000E-05 01:49:12.870 1.500E-01 0.600 F -0.555 0.389 +13° 48' 26.30" 1.000E-01 0.600 F 0.053 -0.034 i 691 0.72 Yes No
1994VA1 O c 1994-11-06.20078 1.000E-05 01:44:27.190 1.500E-01 0.600 F -0.301 -0.549 +15° 21' 23.90" 1.000E-01 0.600 F 0.134 0.334 19.8 V 0.70 -0.66 i 691 1.08 Yes Yes
1994VA1 O c 1994-11-06.20845 1.000E-05 01:44:26.630 1.500E-01 0.600 F -0.301 0.224 +15° 21' 16.70" 1.000E-01 0.600 F 0.134 -0.111 19.4 V 0.70 -1.06 i 691 0.42 Yes Yes
1994VA1 O c 1994-11-07.27748 1.000E-05 01:43:05.830 1.500E-01 0.600 F -0.395 -0.201 +15° 05' 31.70" 1.000E-01 0.600 F 0.134 -0.073 20.0 V 0.70 -0.50 i 691 0.36 Yes Yes
1994VA1 O c 1994-11-07.28508 1.000E-05 01:43:05.270 1.500E-01 0.600 F -0.395 0.314 +15° 05' 25.00" 1.000E-01 0.600 F 0.134 -0.049 20.1 V 0.70 -0.40 i 691 0.53 Yes Yes
1994VA1 O c 1994-11-07.29293 1.000E-05 01:43:04.630 1.500E-01 0.600 F -0.395 -0.053 +15° 05' 18.30" 1.000E-01 0.600 F 0.134 0.202 20.1 V 0.70 -0.40 i 691 0.35 Yes Yes
1994VA1 O c 1994-11-09.17639 1.000E-05 01:40:48.160 1.500E-01 0.600 F -0.395 0.159 +14° 37' 45.40" 1.000E-01 0.600 F 0.134 0.021 20.6 V 0.70 0.04 i 691 0.27 Yes Yes
1994VA1 O c 1994-11-09.18424 1.000E-05 01:40:47.580 1.500E-01 0.600 F -0.395 0.242 +14° 37' 38.30" 1.000E-01 0.600 F 0.134 -0.280 20.5 V 0.70 -0.06 i 691 0.62 Yes Yes
1994US O c 1994-11-09.19275 1.000E-05 01:52:32.230 1.500E-01 0.600 F -0.150 -0.456 +12° 35' 07.20" 1.000E-01 0.600 F -0.148 -0.557 20.9 V 0.70 0.26 i 691 1.28 Yes Yes
1994US O c 1994-11-09.20130 1.000E-05 01:52:32.650 1.500E-01 0.600 F -0.150 0.263 +12° 34' 59.00" 1.000E-01 0.600 F -0.148 0.049 20.5 V 0.70 -0.14 i 691 0.48 Yes Yes
1994US O c 1994-11-09.20978 1.000E-05 01:52:33.010 1.500E-01 0.600 F -0.150 0.165 +12° 34' 50.70" 1.000E-01 0.600 F -0.148 0.489 20.3 V 0.70 -0.34 i 691 0.92 Yes Yes
Gordonmoore O c 1994-11-09.36501 1.000E-05 03:19:38.940 1.500E-01 0.600 F 0.162 -0.225 +08° 29' 34.70" 1.000E-01 0.600 F 0.064 0.026 21.4 V 0.70 0.24 i 691 0.38 Yes Yes
Gordonmoore O c 1994-11-09.38830 1.000E-05 03:19:37.360 1.500E-01 0.600 F 0.162 -0.162 +08° 29' 29.40" 1.000E-01 0.600 F 0.064 -0.555 21.2 V 0.70 0.04 i 691 0.96 Yes Yes
Gordonmoore O c 1994-11-09.41062 1.000E-05 03:19:35.860 1.500E-01 0.600 F 0.162 0.076 +08° 29' 25.00" 1.000E-01 0.600 F 0.064 -0.423 22.5 V 0.70 1.34 i 691 0.72 Yes Yes
2009HB O c 1994-11-10.43087 1.000E-05 03:14:06.960 1.500E-01 0.600 F 0.179 0.527 +08° 53' 26.90" 1.000E-01 0.600 F -0.108 0.307 18.3 V 0.70 -0.24 i 691 1.08 Yes Yes
2009HB O c 1994-11-10.43825 1.000E-05 03:14:06.290 1.500E-01 0.600 F 0.179 0.157 +08° 53' 20.70" 1.000E-01 0.600 F -0.108 0.011 18.5 V 0.70 -0.05 i 691 0.28 Yes Yes
2009HB O c 1994-11-10.44589 1.000E-05 03:14:05.630 1.500E-01 0.600 F 0.179 0.251 +08° 53' 14.50" 1.000E-01 0.600 F -0.108 -0.075 18.4 V 0.70 -0.15 i 691 0.46 Yes Yes
1994VA1 O c 1994-11-11.25572 1.000E-05 01:38:24.550 1.500E-01 0.600 F -0.216 -0.175 +14° 07' 47.50" 1.000E-01 0.600 F -0.028 -0.565 20.7 V 0.70 0.07 i 691 0.99 Yes Yes
1994VA1 O c 1994-11-11.26318 1.000E-05 01:38:24.000 1.500E-01 0.600 F -0.216 -0.503 +14° 07' 41.80" 1.000E-01 0.600 F -0.028 0.133 20.4 V 0.70 -0.23 i 691 0.87 Yes Yes
1994VA1 O c 1994-11-11.27092 1.000E-05 01:38:23.510 1.500E-01 0.600 F -0.216 0.325 +14° 07' 35.20" 1.000E-01 0.600 F -0.028 0.177 20.5 V 0.70 -0.13 i 691 0.62 Yes Yes
2009HB O c 1994-11-11.28157 1.000E-05 03:12:56.830 1.500E-01 0.600 F 0.179 -0.480 +08° 42' 24.20" 1.000E-01 0.600 F -0.108 0.128 18.6 V 0.70 0.02 i 691 0.88 Yes Yes
2009HB O c 1994-11-11.30918 1.000E-05 03:12:54.460 1.500E-01 0.600 F 0.179 0.001 +08° 42' 03.00" 1.000E-01 0.600 F -0.108 0.062 i 691 0.10 Yes No
2009HB O c 1994-11-11.31898 1.000E-05 03:12:53.600 1.500E-01 0.600 F 0.179 -0.112 +08° 41' 55.40" 1.000E-01 0.600 F -0.108 -0.030 18.7 V 0.70 0.12 i 691 0.21 Yes Yes
1994US O c 1994-11-11.33021 1.000E-05 01:54:18.750 1.500E-01 0.600 F -0.306 0.481 +11° 59' 48.70" 1.000E-01 0.600 F -0.408 -0.246 i 691 1.04 Yes No
1994US O c 1994-11-11.33811 1.000E-05 01:54:19.020 1.500E-01 0.600 F -0.306 -0.656 +11° 59' 41.80" 1.000E-01 0.600 F -0.408 0.398 i 691 1.47 Yes No
1994US O c 1994-11-11.34585 1.000E-05 01:54:19.420 1.500E-01 0.600 F -0.306 0.197 +11° 59' 33.90" 1.000E-01 0.600 F -0.408 -0.105 20.9 V 0.70 0.11 i 691 0.43 Yes Yes
Mithra O c 1994-11-28.09789 1.000E-05 02:36:51.030 1.500E-01 0.600 F 0.146 0.263 +12° 47' 26.70" 1.000E-01 0.600 F 0.182 0.864 20.4 V 0.70 0.07 i 691 1.51 Yes Yes
Mithra O c 1994-11-28.13278 1.000E-05 02:36:49.050 1.500E-01 0.600 F 0.146 0.598 +12° 47' 19.10" 1.000E-01 0.600 F 0.182 0.486 i 691 1.28 Yes No
Mithra O c 1994-11-28.15639 1.000E-05 02:36:47.630 1.500E-01 0.600 F 0.146 -0.305 +12° 47' 13.40" 1.000E-01 0.600 F 0.182 -0.315 i 691 0.73 Yes No
Dionysus O c 1994-11-28.16219 1.000E-05 03:32:15.130 1.500E-01 0.600 F -0.777 0.268 +09° 21' 14.10" 1.000E-01 0.600 F -0.045 -1.121 19.4 V 0.70 -0.30 i 691 1.92 Yes Yes
Dionysus O c 1994-11-28.18552 1.000E-05 03:32:13.210 1.500E-01 0.600 F -0.777 -0.108 +09° 21' 18.20" 1.000E-01 0.600 F -0.045 0.219 i 691 0.41 Yes No
1994VA1 O c 1994-12-01.08164 1.000E-05 01:24:30.730 1.500E-01 0.600 F -0.171 0.745 +10° 13' 08.00" 1.000E-01 0.600 F -0.033 0.179 21.0 V 0.70 -0.22 i 691 1.29 Yes Yes
1994VA1 O c 1994-12-01.10136 1.000E-05 01:24:30.350 1.500E-01 0.600 F -0.171 0.447 +10° 12' 57.70" 1.000E-01 0.600 F -0.033 0.114 21.4 V 0.70 0.18 i 691 0.77 Yes Yes
1994VA1 O c 1994-12-01.11984 1.000E-05 01:24:30.040 1.500E-01 0.600 F -0.171 0.885 +10° 12' 47.10" 1.000E-01 0.600 F -0.033 -0.883 20.6 V 0.70 -0.62 i 691 2.09 Yes Yes
2011KN9 O C 1994-12-01.12931 1.000E-05 02:43:44.040 1.500E-01 0.600 F -0.052 -0.127 +04° 50' 10.90" 1.000E-01 0.600 F -0.211 -0.896 i 691 1.51 Yes No
2011KN9 O C 1994-12-01.15625 1.000E-05 02:43:43.260 1.500E-01 0.600 F -0.052 -0.093 +04° 49' 54.10" 1.000E-01 0.600 F -0.211 -0.470 i 691 0.80 Yes No
2011KN9 O C 1994-12-01.18138 1.000E-05 02:43:42.560 1.500E-01 0.600 F -0.052 0.418 +04° 49' 38.20" 1.000E-01 0.600 F -0.211 -0.307 21.1 V 0.70 0.41 i 691 0.96 Yes Yes
1994XD O c 1994-12-01.43811 1.000E-05 08:31:05.570 1.500E-01 0.600 F 0.306 -1.095 +15° 53' 03.90" 1.000E-01 0.600 F 0.152 0.219 19.0 V 0.70 -0.37 i 691 1.86 Yes Yes
1994XD O c 1994-12-01.46209 1.000E-05 08:31:00.600 1.500E-01 0.600 F 0.306 4.273 +15° 53' 34.80" 1.000E-01 0.600 F 0.152 -0.923 18.4 V 0.70 -0.97 i 691 7.28 No Yes
1994XD O c 1994-12-01.48606 1.000E-05 08:30:54.930 1.500E-01 0.600 F 0.306 -0.458 +15° 54' 07.30" 1.000E-01 0.600 F 0.152 -0.326 19.2 V 0.70 -0.17 i 691 0.94 Yes Yes
1994VA1 O c 1994-12-02.12489 1.000E-05 01:24:16.200 1.500E-01 0.600 F -0.171 0.274 +10° 04' 13.00" 1.000E-01 0.600 F -0.033 -0.095 20.5 V 0.70 -0.75 i 691 0.49 Yes Yes
1994VA1 O c 1994-12-02.14828 1.000E-05 01:24:15.780 1.500E-01 0.600 F -0.171 -0.512 +10° 04' 03.50" 1.000E-01 0.600 F -0.033 2.085 20.5 V 0.70 -0.75 i 691 3.57 No Yes
1994VA1 O c 1994-12-02.17181 1.000E-05 01:24:15.470 1.500E-01 0.600 F -0.171 0.363 +10° 03' 49.50" 1.000E-01 0.600 F -0.033 -0.147 20.7 V 0.70 -0.55 i 691 0.66 Yes Yes
1994XG O c 1994-12-02.20462 1.000E-05 03:46:08.500 1.500E-01 0.600 F -0.104 -0.251 +15° 12' 51.30" 1.000E-01 0.600 F 0.323 -0.530 20.3 V 0.70 -0.46 i 691 1.01 Yes Yes
1994XG O c 1994-12-02.24231 1.000E-05 03:46:04.770 1.500E-01 0.600 F -0.104 -0.354 +15° 12' 29.10" 1.000E-01 0.600 F 0.323 -0.294 20.6 V 0.70 -0.16 i 691 0.79 Yes Yes
1994XG O c 1994-12-02.27927 1.000E-05 03:46:01.130 1.500E-01 0.600 F -0.104 -0.175 +15° 12' 07.10" 1.000E-01 0.600 F 0.323 -0.210 20.2 V 0.70 -0.57 i 691 0.47 Yes Yes
1994XD O c 1994-12-02.30479 1.000E-05 08:27:59.800 1.500E-01 0.735 F 0.395 0.027 +16° 12' 08.80" 1.000E-01 0.735 F 0.295 -0.285 19.2 V 0.70 -0.16 i 691 0.39 Yes Yes

[1-200] [201-400] [401-600] [601-800] [801-1000] [1001-1200] [1201-1400] [1401-1600] [1601-1800] [1801-2000] [2001-2200] [2201-2400] [2401-2600] [2601-2800] [2801-3000] [3001-3200] [3201-3400] [3401-3600] [3601-3800] [3801-4000] [4001-4200] [4201-4400] [4401-4600] [4601-4800] [4801-5000] [5001-5200] [5201-5400] [5401-5600] [5601-5800] [5801-6000] [6001-6200] [6201-6400] [6401-6600] [6601-6800] [6801-7000] [7001-7200] [7201-7400] [7401-7600] [7601-7800] [7801-8000] [8001-8200] [8201-8400] [8401-8600] [8601-8800] [8801-9000] [9001-9200] [9201-9400] [9401-9600] [9601-9800] [9801-10000] [10001-10200] [10201-10400] [10401-10600] [10601-10800] [10801-11000] [11001-11200] [11201-11400] [11401-11600] [11601-11800] [11801-12000] [12001-12200] [12201-12400] [12401-12600] [12601-12800] [12801-13000] [13001-13200] [13201-13400] [13401-13600] [13601-13800] [13801-14000] [14001-14200] [14201-14400] [14401-14600] [14601-14800] [14801-15000] [15001-15200] [15201-15400] [15401-15600] [15601-15800] [15801-16000] [16001-16200] [16201-16400] [16401-16600] [16601-16800] [16801-17000] [17001-17200] [17201-17400] [17401-17600] [17601-17800] [17801-18000] [18001-18200] [18201-18400] [18401-18600] [18601-18800] [18801-19000] [19001-19200] [19201-19400] [19401-19600] [19601-19800] [19801-20000] [20001-20200] [20201-20400] [20401-20600] [20601-20800] [20801-21000] [21001-21200] [21201-21400] [21401-21600] [21601-21800] [21801-22000] [22001-22200] [22201-22400] [22401-22600] [22601-22800] [22801-23000] [23001-23200] [23201-23400] [23401-23600] [23601-23800] [23801-24000] [24001-24200] [24201-24400] [24401-24600] [24601-24800] [24801-25000] [25001-25200] [25201-25400] [25401-25600] [25601-25800] [25801-26000] [26001-26200] [26201-26400] [26401-26600] [26601-26800] [26801-27000] [27001-27200] [27201-27400] [27401-27600] [27601-27800] [27801-28000] [28001-28200] [28201-28400] [28401-28600] [28601-28800] [28801-29000] [29001-29200] [29201-29400] [29401-29600] [29601-29800] [29801-30000] [30001-30200] [30201-30400] [30401-30600] [30601-30800] [30801-31000] [31001-31200] [31201-31400] [31401-31600] [31601-31800] [31801-32000] [32001-32200] [32201-32400] [32401-32600] [32601-32800] [32801-33000] [33001-33200] [33201-33400] [33401-33600] [33601-33800] [33801-34000] [34001-34200] [34201-34400] [34401-34600] [34601-34800] [34801-35000] [35001-35200] [35201-35400] [35401-35600] [35601-35800] [35801-36000] [36001-36200] [36201-36400] [36401-36600] [36601-36800] [36801-37000] [37001-37200] [37201-37400] [37401-37600] [37601-37800] [37801-38000] [38001-38200] [38201-38400] [38401-38600] [38601-38800] [38801-39000] [39001-39200] [39201-39400] [39401-39600] [39601-39800] [39801-40000] [40001-40200] [40201-40400] [40401-40600] [40601-40800] [40801-41000] [41001-41200] [41201-41400] [41401-41600] [41601-41800] [41801-42000] [42001-42200] [42201-42400] [42401-42600] [42601-42800] [42801-43000] [43001-43200] [43201-43400] [43401-43600] [43601-43800] [43801-44000] [44001-44200] [44201-44400] [44401-44600] [44601-44800] [44801-45000] [45001-45200] [45201-45400] [45401-45600] [45601-45800] [45801-46000] [46001-46200] [46201-46400] [46401-46600] [46601-46800] [46801-47000] [47001-47200] [47201-47400] [47401-47600] [47601-47800] [47801-48000] [48001-48200] [48201-48400] [48401-48600] [48601-48800] [48801-49000] [49001-49200] [49201-49400] [49401-49600] [49601-49800] [49801-50000] [50001-50200] [50201-50388]